Time,TemperatureF,DewpointF,PressureIn,WindDirection,WindDirectionDegrees,WindSpeedMPH,WindSpeedGustMPH,Humidity,HourlyPrecipIn,Conditions,Clouds,dailyrainin,SoftwareType,DateUTC
2017-05-25 00:03:00,70.5,70.0,29.80,South,180,1.0,4.0,99,0.00,,,0.00,Rainwise IP-100,2017-05-25 04:03:00,
2017-05-25 00:08:00,70.5,70.0,29.79,South,180,1.0,3.0,99,0.00,,,0.00,Rainwise IP-100,2017-05-25 04:08:00,
2017-05-25 00:13:00,70.4,70.0,29.79,South,180,0.0,5.0,99,0.00,,,0.00,Rainwise IP-100,2017-05-25 04:13:00,
2017-05-25 00:18:00,70.3,69.0,29.79,South,180,1.0,2.0,99,0.00,,,0.00,Rainwise IP-100,2017-05-25 04:18:00,
2017-05-25 00:23:00,70.3,69.0,29.80,South,180,1.0,5.0,99,0.00,,,0.00,Rainwise IP-100,2017-05-25 04:23:00,
2017-05-25 00:28:00,70.2,69.0,29.80,South,180,2.0,3.0,99,0.00,,,0.00,Rainwise IP-100,2017-05-25 04:28:00,
2017-05-25 00:33:00,70.3,69.0,29.80,South,180,2.0,6.0,99,0.00,,,0.00,Rainwise IP-100,2017-05-25 04:33:00,
2017-05-25 00:38:00,70.4,70.0,29.80,South,180,5.0,5.0,99,0.00,,,0.00,Rainwise IP-100,2017-05-25 04:38:00,
2017-05-25 00:43:00,70.5,70.0,29.80,South,180,1.0,6.0,99,0.00,,,0.00,Rainwise IP-100,2017-05-25 04:43:00,
2017-05-25 00:48:00,70.7,70.0,29.80,South,180,2.0,6.0,99,0.00,,,0.00,Rainwise IP-100,2017-05-25 04:48:00,
2017-05-25 00:53:00,70.7,70.0,29.80,South,180,1.0,6.0,99,0.00,,,0.00,Rainwise IP-100,2017-05-25 04:53:00,
2017-05-25 00:58:00,70.8,70.0,29.80,South,180,3.0,6.0,99,0.00,,,0.00,Rainwise IP-100,2017-05-25 04:58:00,
2017-05-25 01:03:00,70.8,70.0,29.80,South,180,0.0,8.0,99,0.00,,,0.00,Rainwise IP-100,2017-05-25 05:03:00,
2017-05-25 01:08:00,70.8,70.0,29.80,West,270,2.0,6.0,99,0.00,,,0.00,Rainwise IP-100,2017-05-25 05:08:00,
2017-05-25 01:13:00,70.8,70.0,29.80,South,180,0.0,5.0,99,0.00,,,0.00,Rainwise IP-100,2017-05-25 05:13:00,
2017-05-25 01:18:00,70.7,70.0,29.80,South,180,4.0,6.0,99,0.00,,,0.00,Rainwise IP-100,2017-05-25 05:18:00,
2017-05-25 01:23:00,70.6,70.0,29.80,South,180,0.0,5.0,99,0.00,,,0.00,Rainwise IP-100,2017-05-25 05:23:00,
2017-05-25 01:28:00,70.5,70.0,29.80,South,180,3.0,7.0,99,0.00,,,0.00,Rainwise IP-100,2017-05-25 05:28:00,
2017-05-25 01:33:00,70.4,70.0,29.80,South,180,2.0,6.0,99,0.00,,,0.00,Rainwise IP-100,2017-05-25 05:33:00,
2017-05-25 01:38:00,70.3,69.0,29.80,South,180,1.0,7.0,99,0.00,,,0.00,Rainwise IP-100,2017-05-25 05:38:00,
2017-05-25 01:43:00,70.2,69.0,29.81,South,180,5.0,8.0,99,0.00,,,0.00,Rainwise IP-100,2017-05-25 05:43:00,
2017-05-25 01:48:00,70.2,69.0,29.80,South,180,3.0,6.0,99,0.00,,,0.00,Rainwise IP-100,2017-05-25 05:48:00,
2017-05-25 01:53:00,70.3,69.0,29.80,South,180,3.0,5.0,99,0.00,,,0.00,Rainwise IP-100,2017-05-25 05:53:00,
2017-05-25 01:58:00,70.4,70.0,29.80,South,180,0.0,6.0,99,0.00,,,0.00,Rainwise IP-100,2017-05-25 05:58:00,
2017-05-25 01:59:00,70.6,70.0,29.80,West,270,2.0,6.0,99,0.00,,,0.00,Rainwise IP-100,2017-05-25 05:59:00,
2017-05-25 02:04:00,70.7,70.0,29.80,South,180,2.0,7.0,99,0.00,,,0.00,Rainwise IP-100,2017-05-25 06:04:00,
2017-05-25 02:09:00,70.9,70.0,29.81,South,180,3.0,7.0,99,0.00,,,0.00,Rainwise IP-100,2017-05-25 06:09:00,
2017-05-25 02:14:00,71.3,71.0,29.81,South,180,5.0,11.0,99,0.00,,,0.00,Rainwise IP-100,2017-05-25 06:14:00,
2017-05-25 02:19:00,71.6,71.0,29.80,South,180,1.0,12.0,99,0.00,,,0.00,Rainwise IP-100,2017-05-25 06:19:00,
2017-05-25 02:24:00,71.8,71.0,29.80,South,180,6.0,6.0,99,0.00,,,0.00,Rainwise IP-100,2017-05-25 06:24:00,
2017-05-25 02:29:00,71.9,71.0,29.80,South,180,4.0,9.0,99,0.00,,,0.00,Rainwise IP-100,2017-05-25 06:29:00,
2017-05-25 02:35:00,72.3,72.0,29.80,West,270,3.0,11.0,99,0.00,,,0.00,Rainwise IP-100,2017-05-25 06:35:00,
2017-05-25 02:40:00,72.5,72.0,29.80,South,180,2.0,11.0,98,0.00,,,0.00,Rainwise IP-100,2017-05-25 06:40:00,
2017-05-25 02:45:00,72.7,72.0,29.80,South,180,6.0,10.0,98,0.00,,,0.00,Rainwise IP-100,2017-05-25 06:45:00,
2017-05-25 02:50:00,72.8,72.0,29.80,South,180,2.0,10.0,98,0.00,,,0.00,Rainwise IP-100,2017-05-25 06:50:00,
2017-05-25 02:55:00,72.9,72.0,29.80,South,180,3.0,8.0,98,0.00,,,0.00,Rainwise IP-100,2017-05-25 06:55:00,
2017-05-25 03:00:00,72.9,72.0,29.80,South,180,2.0,7.0,98,0.00,,,0.00,Rainwise IP-100,2017-05-25 07:00:00,
2017-05-25 03:05:00,72.9,72.0,29.80,South,180,1.0,8.0,98,0.00,,,0.00,Rainwise IP-100,2017-05-25 07:05:00,
2017-05-25 03:10:00,72.9,72.0,29.80,South,180,1.0,8.0,99,0.00,,,0.00,Rainwise IP-100,2017-05-25 07:10:00,
2017-05-25 03:15:00,73.1,72.0,29.80,South,180,3.0,9.0,99,0.00,,,0.00,Rainwise IP-100,2017-05-25 07:15:00,
2017-05-25 03:20:00,73.1,72.0,29.80,South,180,3.0,7.0,99,0.00,,,0.00,Rainwise IP-100,2017-05-25 07:20:00,
2017-05-25 03:25:00,73.1,72.0,29.80,South,180,1.0,7.0,99,0.00,,,0.00,Rainwise IP-100,2017-05-25 07:25:00,
2017-05-25 03:30:00,73.2,73.0,29.80,South,180,2.0,7.0,99,0.00,,,0.00,Rainwise IP-100,2017-05-25 07:30:00,
2017-05-25 03:35:00,73.2,73.0,29.80,South,180,1.0,6.0,99,0.00,,,0.00,Rainwise IP-100,2017-05-25 07:35:00,
2017-05-25 03:40:00,73.1,72.0,29.81,South,180,2.0,7.0,99,0.00,,,0.00,Rainwise IP-100,2017-05-25 07:40:00,
2017-05-25 03:45:00,73.1,72.0,29.80,South,180,2.0,6.0,99,0.00,,,0.00,Rainwise IP-100,2017-05-25 07:45:00,
2017-05-25 03:50:00,73.1,72.0,29.80,South,180,1.0,6.0,99,0.00,,,0.00,Rainwise IP-100,2017-05-25 07:50:00,
2017-05-25 03:55:00,73.2,73.0,29.80,West,270,2.0,4.0,99,0.00,,,0.00,Rainwise IP-100,2017-05-25 07:55:00,
2017-05-25 03:56:00,73.1,72.0,29.80,South,180,3.0,5.0,99,0.00,,,0.00,Rainwise IP-100,2017-05-25 07:56:00,
2017-05-25 04:01:00,73.2,73.0,29.80,South,180,1.0,7.0,99,0.00,,,0.00,Rainwise IP-100,2017-05-25 08:01:00,
2017-05-25 04:06:00,73.2,73.0,29.80,South,180,2.0,6.0,99,0.00,,,0.00,Rainwise IP-100,2017-05-25 08:06:00,
2017-05-25 04:11:00,73.3,73.0,29.80,South,180,1.0,6.0,99,0.00,,,0.00,Rainwise IP-100,2017-05-25 08:11:00,
2017-05-25 04:16:00,73.3,73.0,29.80,South,180,2.0,3.0,99,0.00,,,0.00,Rainwise IP-100,2017-05-25 08:16:00,
2017-05-25 04:21:00,73.1,72.0,29.80,South,180,2.0,3.0,99,0.00,,,0.00,Rainwise IP-100,2017-05-25 08:21:00,
2017-05-25 04:26:00,73.1,72.0,29.80,South,180,2.0,5.0,99,0.00,,,0.00,Rainwise IP-100,2017-05-25 08:26:00,
2017-05-25 04:27:00,73.1,72.0,29.80,South,180,2.0,5.0,99,0.00,,,0.00,Rainwise IP-100,2017-05-25 08:27:00,
2017-05-25 04:32:00,73.0,72.0,29.79,South,180,1.0,7.0,99,0.00,,,0.00,Rainwise IP-100,2017-05-25 08:32:00,
2017-05-25 04:38:00,72.8,72.0,29.80,South,180,2.0,4.0,99,0.00,,,0.00,Rainwise IP-100,2017-05-25 08:38:00,
2017-05-25 04:43:00,72.7,72.0,29.79,South,180,3.0,4.0,99,0.00,,,0.00,Rainwise IP-100,2017-05-25 08:43:00,
2017-05-25 04:48:00,72.5,72.0,29.79,South,180,1.0,6.0,99,0.00,,,0.00,Rainwise IP-100,2017-05-25 08:48:00,
2017-05-25 04:53:00,72.3,72.0,29.79,South,180,0.0,6.0,99,0.00,,,0.00,Rainwise IP-100,2017-05-25 08:53:00,
2017-05-25 04:58:00,72.2,72.0,29.78,South,180,2.0,5.0,99,0.00,,,0.00,Rainwise IP-100,2017-05-25 08:58:00,
2017-05-25 05:03:00,72.0,71.0,29.79,South,180,2.0,3.0,99,0.00,,,0.00,Rainwise IP-100,2017-05-25 09:03:00,
2017-05-25 05:08:00,71.9,71.0,29.79,South,180,1.0,4.0,99,0.00,,,0.00,Rainwise IP-100,2017-05-25 09:08:00,
2017-05-25 05:13:00,71.9,71.0,29.79,South,180,2.0,3.0,99,0.00,,,0.00,Rainwise IP-100,2017-05-25 09:13:00,
2017-05-25 05:18:00,71.7,71.0,29.79,South,180,2.0,4.0,99,0.00,,,0.00,Rainwise IP-100,2017-05-25 09:18:00,
2017-05-25 05:23:00,71.6,71.0,29.80,South,180,6.0,6.0,99,0.00,,,0.00,Rainwise IP-100,2017-05-25 09:23:00,
2017-05-25 05:28:00,71.6,71.0,29.80,South,180,4.0,6.0,99,0.00,,,0.00,Rainwise IP-100,2017-05-25 09:28:00,
2017-05-25 05:33:00,71.6,71.0,29.80,South,180,2.0,5.0,99,0.00,,,0.00,Rainwise IP-100,2017-05-25 09:33:00,
2017-05-25 05:38:00,71.6,71.0,29.80,South,180,4.0,4.0,99,0.00,,,0.00,Rainwise IP-100,2017-05-25 09:38:00,
2017-05-25 05:43:00,71.6,71.0,29.80,South,180,2.0,6.0,99,0.00,,,0.00,Rainwise IP-100,2017-05-25 09:43:00,
2017-05-25 05:48:00,71.6,71.0,29.80,South,180,1.0,5.0,99,0.00,,,0.00,Rainwise IP-100,2017-05-25 09:48:00,
2017-05-25 05:53:00,71.7,71.0,29.80,SSE,157,0.0,4.0,99,0.00,,,0.00,Rainwise IP-100,2017-05-25 09:53:00,
2017-05-25 05:58:00,71.7,71.0,29.80,South,180,2.0,2.0,99,0.00,,,0.00,Rainwise IP-100,2017-05-25 09:58:00,
2017-05-25 06:03:00,71.8,71.0,29.80,South,180,2.0,4.0,99,0.00,,,0.00,Rainwise IP-100,2017-05-25 10:03:00,
2017-05-25 06:08:00,71.9,71.0,29.80,South,180,3.0,6.0,99,0.00,,,0.00,Rainwise IP-100,2017-05-25 10:08:00,
2017-05-25 06:13:00,71.9,71.0,29.80,South,180,1.0,6.0,99,0.00,,,0.00,Rainwise IP-100,2017-05-25 10:13:00,
2017-05-25 06:18:00,71.9,71.0,29.80,South,180,2.0,5.0,99,0.00,,,0.00,Rainwise IP-100,2017-05-25 10:18:00,
2017-05-25 06:23:00,72.1,71.0,29.80,South,180,2.0,5.0,99,0.00,,,0.00,Rainwise IP-100,2017-05-25 10:23:00,
2017-05-25 06:28:00,72.2,72.0,29.80,South,180,3.0,5.0,99,0.06,,,0.01,Rainwise IP-100,2017-05-25 10:28:00,
2017-05-25 06:33:00,72.2,72.0,29.80,South,180,2.0,4.0,99,0.06,,,0.01,Rainwise IP-100,2017-05-25 10:33:00,
2017-05-25 06:38:00,72.3,72.0,29.80,West,270,2.0,6.0,99,0.00,,,0.01,Rainwise IP-100,2017-05-25 10:38:00,
2017-05-25 06:43:00,72.4,72.0,29.81,South,180,1.0,3.0,99,0.00,,,0.01,Rainwise IP-100,2017-05-25 10:43:00,
2017-05-25 06:48:00,72.4,72.0,29.82,South,180,2.0,3.0,99,0.00,,,0.01,Rainwise IP-100,2017-05-25 10:48:00,
2017-05-25 06:53:00,72.6,72.0,29.82,South,180,0.0,4.0,99,0.00,,,0.01,Rainwise IP-100,2017-05-25 10:53:00,
2017-05-25 06:58:00,72.7,72.0,29.82,South,180,1.0,4.0,99,0.00,,,0.01,Rainwise IP-100,2017-05-25 10:58:00,
2017-05-25 07:03:00,72.8,72.0,29.82,South,180,2.0,5.0,99,0.00,,,0.01,Rainwise IP-100,2017-05-25 11:03:00,
2017-05-25 07:08:00,72.9,72.0,29.82,South,180,4.0,8.0,99,0.00,,,0.01,Rainwise IP-100,2017-05-25 11:08:00,
2017-05-25 07:13:00,72.9,72.0,29.82,South,180,2.0,5.0,99,0.00,,,0.01,Rainwise IP-100,2017-05-25 11:13:00,
2017-05-25 07:18:00,73.1,72.0,29.82,South,180,1.0,6.0,99,0.00,,,0.01,Rainwise IP-100,2017-05-25 11:18:00,
2017-05-25 07:23:00,73.1,72.0,29.83,SE,135,2.0,4.0,99,0.00,,,0.01,Rainwise IP-100,2017-05-25 11:23:00,
2017-05-25 07:28:00,73.2,73.0,29.83,South,180,2.0,6.0,99,0.00,,,0.01,Rainwise IP-100,2017-05-25 11:28:00,
2017-05-25 07:33:00,73.3,73.0,29.83,South,180,3.0,3.0,99,0.00,,,0.01,Rainwise IP-100,2017-05-25 11:33:00,
2017-05-25 07:38:00,73.4,73.0,29.83,SSE,157,2.0,4.0,99,0.00,,,0.01,Rainwise IP-100,2017-05-25 11:38:00,
2017-05-25 07:43:00,73.6,73.0,29.83,SSE,157,1.0,4.0,99,0.00,,,0.01,Rainwise IP-100,2017-05-25 11:43:00,
2017-05-25 07:48:00,73.7,73.0,29.83,South,180,1.0,4.0,99,0.00,,,0.01,Rainwise IP-100,2017-05-25 11:48:00,
2017-05-25 07:53:00,73.9,73.0,29.82,SSE,157,2.0,4.0,99,0.00,,,0.01,Rainwise IP-100,2017-05-25 11:53:00,
2017-05-25 07:58:00,74.2,74.0,29.83,SSE,157,2.0,4.0,99,0.00,,,0.01,Rainwise IP-100,2017-05-25 11:58:00,
2017-05-25 08:03:00,74.3,74.0,29.83,SE,135,2.0,4.0,99,0.00,,,0.01,Rainwise IP-100,2017-05-25 12:03:00,
2017-05-25 08:08:00,74.5,74.0,29.83,South,180,2.0,4.0,99,0.00,,,0.01,Rainwise IP-100,2017-05-25 12:08:00,
2017-05-25 08:13:00,74.7,74.0,29.84,South,180,1.0,5.0,99,0.00,,,0.01,Rainwise IP-100,2017-05-25 12:13:00,
2017-05-25 08:18:00,74.9,74.0,29.84,South,180,4.0,6.0,98,0.00,,,0.01,Rainwise IP-100,2017-05-25 12:18:00,
2017-05-25 08:23:00,75.2,74.0,29.84,South,180,1.0,4.0,98,0.00,,,0.01,Rainwise IP-100,2017-05-25 12:23:00,
2017-05-25 08:25:00,75.5,74.0,29.84,South,180,1.0,4.0,97,0.00,,,0.01,Rainwise IP-100,2017-05-25 12:25:00,
2017-05-25 08:30:00,75.9,74.0,29.84,South,180,1.0,6.0,95,0.00,,,0.01,Rainwise IP-100,2017-05-25 12:30:00,
2017-05-25 08:35:00,76.8,74.0,29.84,South,180,0.0,6.0,93,0.00,,,0.01,Rainwise IP-100,2017-05-25 12:35:00,
2017-05-25 08:40:00,77.6,75.0,29.84,South,180,2.0,6.0,93,0.00,,,0.01,Rainwise IP-100,2017-05-25 12:40:00,
2017-05-25 08:45:00,77.9,75.0,29.84,South,180,2.0,7.0,91,0.00,,,0.01,Rainwise IP-100,2017-05-25 12:45:00,
2017-05-25 08:50:00,78.2,75.0,29.84,South,180,2.0,7.0,91,0.00,,,0.01,Rainwise IP-100,2017-05-25 12:50:00,
2017-05-25 08:55:00,78.5,75.0,29.85,South,180,6.0,11.0,90,0.00,,,0.01,Rainwise IP-100,2017-05-25 12:55:00,
2017-05-25 09:00:00,78.6,75.0,29.85,South,180,5.0,9.0,90,0.00,,,0.01,Rainwise IP-100,2017-05-25 13:00:00,
2017-05-25 09:05:00,78.8,76.0,29.86,South,180,2.0,6.0,91,0.00,,,0.01,Rainwise IP-100,2017-05-25 13:05:00,
2017-05-25 09:10:00,78.9,76.0,29.86,South,180,1.0,6.0,91,0.00,,,0.01,Rainwise IP-100,2017-05-25 13:10:00,
2017-05-25 09:15:00,78.9,76.0,29.86,South,180,1.0,7.0,91,0.00,,,0.01,Rainwise IP-100,2017-05-25 13:15:00,
2017-05-25 09:20:00,79.1,76.0,29.86,South,180,1.0,7.0,90,0.00,,,0.01,Rainwise IP-100,2017-05-25 13:20:00,
2017-05-25 09:25:00,79.3,76.0,29.86,South,180,4.0,7.0,89,0.00,,,0.01,Rainwise IP-100,2017-05-25 13:25:00,
2017-05-25 09:30:00,79.4,76.0,29.86,South,180,1.0,6.0,90,0.00,,,0.01,Rainwise IP-100,2017-05-25 13:30:00,
2017-05-25 09:35:00,79.4,76.0,29.86,South,180,4.0,9.0,91,0.00,,,0.01,Rainwise IP-100,2017-05-25 13:35:00,
2017-05-25 09:40:00,79.9,76.0,29.86,SE,135,3.0,9.0,90,0.00,,,0.01,Rainwise IP-100,2017-05-25 13:40:00,
2017-05-25 09:45:00,80.1,76.0,29.86,West,270,3.0,10.0,90,0.00,,,0.01,Rainwise IP-100,2017-05-25 13:45:00,
2017-05-25 09:50:00,80.7,77.0,29.86,South,180,4.0,7.0,89,0.00,,,0.01,Rainwise IP-100,2017-05-25 13:50:00,
2017-05-25 09:55:00,81.5,77.0,29.87,South,180,2.0,8.0,88,0.00,,,0.01,Rainwise IP-100,2017-05-25 13:55:00,
2017-05-25 10:00:00,81.3,77.0,29.87,South,180,3.0,12.0,88,0.00,,,0.01,Rainwise IP-100,2017-05-25 14:00:00,
2017-05-25 10:05:00,80.9,77.0,29.87,South,180,2.0,16.0,89,0.00,,,0.01,Rainwise IP-100,2017-05-25 14:05:00,
2017-05-25 10:10:00,80.4,77.0,29.86,South,180,1.0,9.0,90,0.00,,,0.01,Rainwise IP-100,2017-05-25 14:10:00,
2017-05-25 10:15:00,80.1,77.0,29.86,South,180,3.0,8.0,91,0.00,,,0.01,Rainwise IP-100,2017-05-25 14:15:00,
2017-05-25 10:20:00,80.1,77.0,29.86,West,270,3.0,7.0,92,0.00,,,0.01,Rainwise IP-100,2017-05-25 14:20:00,
2017-05-25 10:25:00,79.9,77.0,29.86,South,180,2.0,9.0,92,0.00,,,0.01,Rainwise IP-100,2017-05-25 14:25:00,
2017-05-25 10:30:00,79.9,77.0,29.86,West,270,2.0,10.0,92,0.00,,,0.01,Rainwise IP-100,2017-05-25 14:30:00,
2017-05-25 10:35:00,79.7,77.0,29.86,South,180,6.0,7.0,93,0.00,,,0.01,Rainwise IP-100,2017-05-25 14:35:00,
2017-05-25 10:40:00,78.9,78.0,29.86,South,180,1.0,9.0,97,0.18,,,0.04,Rainwise IP-100,2017-05-25 14:40:00,
2017-05-25 10:41:00,78.8,78.0,29.86,South,180,2.0,9.0,98,0.18,,,0.04,Rainwise IP-100,2017-05-25 14:41:00,
2017-05-25 10:46:00,78.2,78.0,29.86,South,180,4.0,11.0,100,0.06,,,0.04,Rainwise IP-100,2017-05-25 14:46:00,
2017-05-25 10:51:00,77.9,78.0,29.88,South,180,2.0,9.0,100,0.00,,,0.04,Rainwise IP-100,2017-05-25 14:51:00,
2017-05-25 10:56:00,77.8,77.0,29.88,South,180,7.0,11.0,100,0.00,,,0.04,Rainwise IP-100,2017-05-25 14:56:00,
2017-05-25 11:01:00,77.8,77.0,29.88,South,180,11.0,15.0,100,0.24,,,0.10,Rainwise IP-100,2017-05-25 15:01:00,
2017-05-25 11:06:00,75.5,75.0,29.90,NNW,337,1.0,14.0,99,0.90,,,0.19,Rainwise IP-100,2017-05-25 15:06:00,
2017-05-25 11:11:00,73.9,73.0,29.90,West,270,6.0,27.0,99,0.90,,,0.24,Rainwise IP-100,2017-05-25 15:11:00,
2017-05-25 11:16:00,72.8,72.0,29.89,South,180,9.0,17.0,99,0.60,,,0.29,Rainwise IP-100,2017-05-25 15:16:00,
2017-05-25 11:21:00,71.9,71.0,29.87,South,180,6.0,14.0,99,0.96,,,0.40,Rainwise IP-100,2017-05-25 15:21:00,
2017-05-25 11:26:00,71.7,71.0,29.87,South,180,6.0,14.0,99,0.72,,,0.42,Rainwise IP-100,2017-05-25 15:26:00,
2017-05-25 11:31:00,71.9,71.0,29.88,West,270,0.0,11.0,99,0.18,,,0.42,Rainwise IP-100,2017-05-25 15:31:00,
2017-05-25 11:36:00,72.3,72.0,29.88,South,180,1.0,4.0,99,0.06,,,0.42,Rainwise IP-100,2017-05-25 15:36:00,
2017-05-25 11:41:00,72.8,72.0,29.88,SSE,157,2.0,6.0,99,0.00,,,0.42,Rainwise IP-100,2017-05-25 15:41:00,
2017-05-25 11:46:00,73.2,73.0,29.89,South,180,0.0,5.0,99,0.00,,,0.42,Rainwise IP-100,2017-05-25 15:46:00,
2017-05-25 11:51:00,73.4,73.0,29.89,West,270,2.0,7.0,99,0.00,,,0.42,Rainwise IP-100,2017-05-25 15:51:00,
2017-05-25 11:56:00,73.7,73.0,29.90,South,180,1.0,8.0,99,0.00,,,0.42,Rainwise IP-100,2017-05-25 15:56:00,
2017-05-25 12:01:00,74.1,73.0,29.90,South,180,4.0,5.0,99,0.00,,,0.42,Rainwise IP-100,2017-05-25 16:01:00,
2017-05-25 12:07:00,74.6,74.0,29.90,South,180,1.0,7.0,99,0.00,,,0.42,Rainwise IP-100,2017-05-25 16:07:00,
2017-05-25 12:12:00,75.0,74.0,29.90,South,180,4.0,7.0,99,0.00,,,0.42,Rainwise IP-100,2017-05-25 16:12:00,
2017-05-25 12:17:00,75.2,74.0,29.90,South,180,2.0,7.0,99,0.00,,,0.42,Rainwise IP-100,2017-05-25 16:17:00,
2017-05-25 12:22:00,75.4,75.0,29.89,South,180,2.0,4.0,99,0.00,,,0.42,Rainwise IP-100,2017-05-25 16:22:00,
2017-05-25 12:27:00,75.6,75.0,29.90,South,180,0.0,6.0,99,0.00,,,0.42,Rainwise IP-100,2017-05-25 16:27:00,
2017-05-25 12:32:00,75.7,75.0,29.90,SE,135,2.0,7.0,99,0.00,,,0.42,Rainwise IP-100,2017-05-25 16:32:00,
2017-05-25 12:37:00,75.8,75.0,29.90,South,180,1.0,6.0,99,0.00,,,0.42,Rainwise IP-100,2017-05-25 16:37:00,
2017-05-25 12:42:00,76.3,76.0,29.90,South,180,0.0,7.0,99,0.00,,,0.42,Rainwise IP-100,2017-05-25 16:42:00,
2017-05-25 12:47:00,76.9,76.0,29.90,West,270,0.0,4.0,99,0.00,,,0.42,Rainwise IP-100,2017-05-25 16:47:00,
2017-05-25 12:52:00,77.7,77.0,29.90,South,180,1.0,5.0,100,0.00,,,0.42,Rainwise IP-100,2017-05-25 16:52:00,
2017-05-25 12:57:00,78.7,78.0,29.90,South,180,1.0,7.0,100,0.00,,,0.42,Rainwise IP-100,2017-05-25 16:57:00,
2017-05-25 13:02:00,78.9,78.0,29.90,South,180,2.0,5.0,98,0.00,,,0.42,Rainwise IP-100,2017-05-25 17:02:00,
2017-05-25 13:07:00,79.5,78.0,29.90,South,180,2.0,7.0,97,0.00,,,0.42,Rainwise IP-100,2017-05-25 17:07:00,
2017-05-25 13:12:00,79.8,78.0,29.90,South,180,4.0,7.0,95,0.00,,,0.42,Rainwise IP-100,2017-05-25 17:12:00,
2017-05-25 13:17:00,79.8,76.0,29.90,South,180,0.0,9.0,91,0.00,,,0.42,Rainwise IP-100,2017-05-25 17:17:00,
2017-05-25 13:22:00,79.9,77.0,29.91,South,180,2.0,9.0,91,0.00,,,0.42,Rainwise IP-100,2017-05-25 17:22:00,
2017-05-25 13:27:00,79.8,76.0,29.90,South,180,2.0,8.0,90,0.00,,,0.42,Rainwise IP-100,2017-05-25 17:27:00,
2017-05-25 13:32:00,80.2,77.0,29.90,South,180,1.0,7.0,91,0.00,,,0.42,Rainwise IP-100,2017-05-25 17:32:00,
2017-05-25 13:37:00,80.6,76.0,29.90,West,270,3.0,8.0,89,0.00,,,0.42,Rainwise IP-100,2017-05-25 17:37:00,
2017-05-25 13:42:00,80.7,77.0,29.90,South,180,0.0,4.0,89,0.00,,,0.42,Rainwise IP-100,2017-05-25 17:42:00,
2017-05-25 13:47:00,80.5,76.0,29.90,South,180,1.0,9.0,87,0.00,,,0.42,Rainwise IP-100,2017-05-25 17:47:00,
2017-05-25 13:52:00,80.5,76.0,29.90,South,180,1.0,9.0,87,0.00,,,0.42,Rainwise IP-100,2017-05-25 17:52:00,
2017-05-25 13:57:00,80.1,76.0,29.90,West,270,3.0,7.0,89,0.00,,,0.42,Rainwise IP-100,2017-05-25 17:57:00,
2017-05-25 14:02:00,79.7,76.0,29.91,South,180,1.0,6.0,91,0.00,,,0.42,Rainwise IP-100,2017-05-25 18:02:00,
2017-05-25 14:07:00,79.3,76.0,29.91,West,270,2.0,7.0,92,0.00,,,0.42,Rainwise IP-100,2017-05-25 18:07:00,
2017-05-25 14:12:00,79.0,77.0,29.91,South,180,6.0,8.0,95,0.00,,,0.42,Rainwise IP-100,2017-05-25 18:12:00,
2017-05-25 14:17:00,78.4,77.0,29.90,South,180,11.0,11.0,96,0.00,,,0.42,Rainwise IP-100,2017-05-25 18:17:00,
2017-05-25 14:22:00,78.4,77.0,29.90,South,180,2.0,11.0,98,0.00,,,0.42,Rainwise IP-100,2017-05-25 18:22:00,
2017-05-25 14:27:00,77.9,77.0,29.91,South,180,4.0,9.0,99,0.00,,,0.42,Rainwise IP-100,2017-05-25 18:27:00,
2017-05-25 14:32:00,77.2,76.0,29.91,South,180,4.0,11.0,98,0.00,,,0.42,Rainwise IP-100,2017-05-25 18:32:00,
2017-05-25 14:37:00,76.5,76.0,29.90,South,180,2.0,11.0,98,0.00,,,0.42,Rainwise IP-100,2017-05-25 18:37:00,
2017-05-25 14:42:00,76.2,76.0,29.90,West,270,1.0,9.0,99,0.00,,,0.42,Rainwise IP-100,2017-05-25 18:42:00,
2017-05-25 14:47:00,75.7,75.0,29.90,South,180,1.0,9.0,99,0.06,,,0.43,Rainwise IP-100,2017-05-25 18:47:00,
2017-05-25 14:52:00,75.5,75.0,29.88,SE,135,2.0,4.0,99,0.06,,,0.43,Rainwise IP-100,2017-05-25 18:52:00,
2017-05-25 14:57:00,75.5,75.0,29.88,South,180,2.0,7.0,99,0.00,,,0.43,Rainwise IP-100,2017-05-25 18:57:00,
2017-05-25 15:02:00,75.7,75.0,29.88,South,180,1.0,6.0,99,0.00,,,0.43,Rainwise IP-100,2017-05-25 19:02:00,
2017-05-25 15:07:00,76.1,75.0,29.88,South,180,2.0,4.0,99,0.00,,,0.43,Rainwise IP-100,2017-05-25 19:07:00,
2017-05-25 15:12:00,76.3,76.0,29.88,South,180,1.0,6.0,99,0.00,,,0.43,Rainwise IP-100,2017-05-25 19:12:00,
2017-05-25 15:17:00,76.5,76.0,29.88,South,180,1.0,5.0,99,0.00,,,0.43,Rainwise IP-100,2017-05-25 19:17:00,
2017-05-25 15:22:00,76.7,76.0,29.88,South,180,2.0,5.0,99,0.06,,,0.44,Rainwise IP-100,2017-05-25 19:22:00,
2017-05-25 15:27:00,76.8,76.0,29.87,SSE,157,2.0,6.0,99,0.18,,,0.46,Rainwise IP-100,2017-05-25 19:27:00,
2017-05-25 15:32:00,76.9,76.0,29.87,South,180,4.0,5.0,99,0.18,,,0.47,Rainwise IP-100,2017-05-25 19:32:00,
2017-05-25 15:37:00,76.9,76.0,29.87,South,180,3.0,7.0,99,0.06,,,0.47,Rainwise IP-100,2017-05-25 19:37:00,
2017-05-25 15:42:00,77.5,77.0,29.88,South,180,6.0,7.0,100,0.00,,,0.47,Rainwise IP-100,2017-05-25 19:42:00,
2017-05-25 15:47:00,78.0,78.0,29.88,South,180,2.0,9.0,100,0.00,,,0.47,Rainwise IP-100,2017-05-25 19:47:00,
2017-05-25 15:52:00,78.7,78.0,29.88,South,180,2.0,7.0,100,0.00,,,0.47,Rainwise IP-100,2017-05-25 19:52:00,
2017-05-25 15:57:00,79.4,79.0,29.88,South,180,4.0,6.0,100,0.00,,,0.47,Rainwise IP-100,2017-05-25 19:57:00,
2017-05-25 16:02:00,80.0,79.0,29.88,South,180,2.0,6.0,99,0.00,,,0.47,Rainwise IP-100,2017-05-25 20:02:00,
2017-05-25 16:07:00,80.2,78.0,29.88,South,180,1.0,7.0,95,0.00,,,0.47,Rainwise IP-100,2017-05-25 20:07:00,
2017-05-25 16:12:00,80.8,79.0,29.89,South,180,1.0,6.0,94,0.00,,,0.47,Rainwise IP-100,2017-05-25 20:12:00,
2017-05-25 16:17:00,81.6,78.0,29.89,SW,225,1.0,5.0,91,0.00,,,0.47,Rainwise IP-100,2017-05-25 20:17:00,
2017-05-25 16:22:00,81.5,78.0,29.89,South,180,4.0,4.0,91,0.00,,,0.47,Rainwise IP-100,2017-05-25 20:22:00,
2017-05-25 16:27:00,80.9,77.0,29.89,South,180,2.0,7.0,90,0.00,,,0.47,Rainwise IP-100,2017-05-25 20:27:00,
2017-05-25 16:32:00,80.6,78.0,29.89,South,180,2.0,6.0,92,0.00,,,0.47,Rainwise IP-100,2017-05-25 20:32:00,
2017-05-25 16:37:00,80.3,77.0,29.89,South,180,1.0,6.0,92,0.00,,,0.47,Rainwise IP-100,2017-05-25 20:37:00,
2017-05-25 16:42:00,79.6,77.0,29.89,SSE,157,1.0,7.0,92,0.00,,,0.47,Rainwise IP-100,2017-05-25 20:42:00,
2017-05-25 16:47:00,79.3,77.0,29.89,SSE,157,4.0,6.0,94,0.00,,,0.47,Rainwise IP-100,2017-05-25 20:47:00,
2017-05-25 16:48:00,79.3,77.0,29.89,South,180,2.0,6.0,94,0.00,,,0.47,Rainwise IP-100,2017-05-25 20:48:00,
2017-05-25 16:53:00,79.3,77.0,29.89,South,180,0.0,4.0,94,0.00,,,0.47,Rainwise IP-100,2017-05-25 20:53:00,
2017-05-25 16:58:00,79.2,78.0,29.90,South,180,0.0,2.0,96,0.00,,,0.47,Rainwise IP-100,2017-05-25 20:58:00,
2017-05-25 17:03:00,78.7,76.0,29.90,NE,45,0.0,2.0,94,0.00,,,0.47,Rainwise IP-100,2017-05-25 21:03:00,
2017-05-25 17:08:00,78.1,76.0,29.90,North,360,0.0,1.0,93,0.00,,,0.47,Rainwise IP-100,2017-05-25 21:08:00,
2017-05-25 17:09:00,78.0,76.0,29.90,North,360,0.0,1.0,95,0.00,,,0.47,Rainwise IP-100,2017-05-25 21:09:00,
2017-05-25 17:14:00,77.7,76.0,29.90,NNE,22,0.0,1.0,95,0.00,,,0.47,Rainwise IP-100,2017-05-25 21:14:00,
2017-05-25 17:19:00,77.7,76.0,29.90,ENE,67,0.0,1.0,95,0.00,,,0.47,Rainwise IP-100,2017-05-25 21:19:00,
2017-05-25 17:24:00,78.5,77.0,29.90,NW,315,0.0,2.0,95,0.00,,,0.47,Rainwise IP-100,2017-05-25 21:24:00,
2017-05-25 17:29:00,78.9,76.0,29.90,NW,315,0.0,0.0,91,0.00,,,0.47,Rainwise IP-100,2017-05-25 21:29:00,
2017-05-25 17:34:00,79.2,76.0,29.90,NE,45,0.0,2.0,90,0.00,,,0.47,Rainwise IP-100,2017-05-25 21:34:00,
2017-05-25 17:39:00,79.3,76.0,29.90,NE,45,0.0,2.0,91,0.00,,,0.47,Rainwise IP-100,2017-05-25 21:39:00,
2017-05-25 17:44:00,79.4,76.0,29.90,NE,45,0.0,2.0,91,0.00,,,0.47,Rainwise IP-100,2017-05-25 21:44:00,
2017-05-25 17:49:00,79.2,76.0,29.90,NW,315,0.0,2.0,91,0.00,,,0.47,Rainwise IP-100,2017-05-25 21:49:00,
2017-05-25 17:54:00,79.2,76.0,29.90,NNW,337,0.0,2.0,89,0.00,,,0.47,Rainwise IP-100,2017-05-25 21:54:00,
2017-05-25 17:55:00,79.4,76.0,29.90,NNW,337,1.0,2.0,90,0.00,,,0.47,Rainwise IP-100,2017-05-25 21:55:00,
2017-05-25 18:00:00,79.6,76.0,29.90,North,360,0.0,2.0,89,0.00,,,0.47,Rainwise IP-100,2017-05-25 22:00:00,
2017-05-25 18:05:00,79.7,76.0,29.90,NE,45,0.0,2.0,88,0.00,,,0.47,Rainwise IP-100,2017-05-25 22:05:00,
2017-05-25 18:10:00,79.5,76.0,29.90,South,180,0.0,2.0,89,0.00,,,0.47,Rainwise IP-100,2017-05-25 22:10:00,
2017-05-25 18:15:00,79.2,75.0,29.90,South,180,0.0,1.0,88,0.00,,,0.47,Rainwise IP-100,2017-05-25 22:15:00,
2017-05-25 18:20:00,78.9,76.0,29.90,North,360,0.0,1.0,90,0.00,,,0.47,Rainwise IP-100,2017-05-25 22:20:00,
2017-05-25 18:25:00,78.7,76.0,29.90,North,360,0.0,1.0,91,0.00,,,0.47,Rainwise IP-100,2017-05-25 22:25:00,
2017-05-25 18:30:00,78.6,76.0,29.90,North,360,0.0,1.0,91,0.00,,,0.47,Rainwise IP-100,2017-05-25 22:30:00,
2017-05-25 18:35:00,78.7,76.0,29.90,North,360,0.0,0.0,91,0.00,,,0.47,Rainwise IP-100,2017-05-25 22:35:00,
2017-05-25 18:40:00,78.8,75.0,29.90,NE,45,0.0,2.0,89,0.00,,,0.47,Rainwise IP-100,2017-05-25 22:40:00,
2017-05-25 18:45:00,78.8,75.0,29.90,North,360,0.0,2.0,89,0.00,,,0.47,Rainwise IP-100,2017-05-25 22:45:00,
2017-05-25 18:50:00,78.7,75.0,29.90,NNW,337,0.0,2.0,90,0.00,,,0.47,Rainwise IP-100,2017-05-25 22:50:00,
2017-05-25 18:55:00,78.6,75.0,29.90,NNW,337,0.0,1.0,90,0.00,,,0.47,Rainwise IP-100,2017-05-25 22:55:00,
2017-05-25 19:00:00,78.4,75.0,29.91,NNW,337,0.0,1.0,90,0.00,,,0.47,Rainwise IP-100,2017-05-25 23:00:00,
2017-05-25 19:05:00,78.3,74.0,29.91,NNW,337,0.0,0.0,89,0.00,,,0.47,Rainwise IP-100,2017-05-25 23:05:00,
2017-05-25 19:10:00,78.1,74.0,29.91,NNW,337,0.0,0.0,90,0.00,,,0.47,Rainwise IP-100,2017-05-25 23:10:00,
2017-05-25 19:15:00,77.9,75.0,29.91,North,360,0.0,0.0,91,0.00,,,0.47,Rainwise IP-100,2017-05-25 23:15:00,
2017-05-25 19:20:00,77.7,74.0,29.91,North,360,0.0,0.0,91,0.00,,,0.47,Rainwise IP-100,2017-05-25 23:20:00,
2017-05-25 19:25:00,77.5,74.0,29.91,North,360,0.0,0.0,91,0.00,,,0.47,Rainwise IP-100,2017-05-25 23:25:00,
2017-05-25 19:30:00,77.3,74.0,29.91,North,360,0.0,0.0,91,0.00,,,0.47,Rainwise IP-100,2017-05-25 23:30:00,
2017-05-25 19:35:00,77.1,74.0,29.91,North,360,0.0,0.0,93,0.00,,,0.47,Rainwise IP-100,2017-05-25 23:35:00,
2017-05-25 19:40:00,76.8,74.0,29.92,North,360,0.0,0.0,91,0.00,,,0.47,Rainwise IP-100,2017-05-25 23:40:00,
2017-05-25 19:45:00,76.7,74.0,29.92,North,360,0.0,0.0,92,0.00,,,0.47,Rainwise IP-100,2017-05-25 23:45:00,
2017-05-25 19:50:00,76.5,74.0,29.92,North,360,0.0,0.0,92,0.00,,,0.47,Rainwise IP-100,2017-05-25 23:50:00,
2017-05-25 19:55:00,76.2,73.0,29.92,North,360,0.0,0.0,92,0.00,,,0.47,Rainwise IP-100,2017-05-25 23:55:00,
2017-05-25 20:00:00,75.9,73.0,29.92,North,360,0.0,0.0,93,0.00,,,0.47,Rainwise IP-100,2017-05-26 00:00:00,
2017-05-25 20:05:00,75.6,73.0,29.92,North,360,0.0,0.0,93,0.00,,,0.47,Rainwise IP-100,2017-05-26 00:05:00,
2017-05-25 20:10:00,75.3,73.0,29.92,North,360,0.0,0.0,94,0.00,,,0.47,Rainwise IP-100,2017-05-26 00:10:00,
2017-05-25 20:15:00,74.9,73.0,29.92,North,360,0.0,0.0,94,0.00,,,0.47,Rainwise IP-100,2017-05-26 00:15:00,
2017-05-25 20:20:00,74.7,73.0,29.92,North,360,0.0,0.0,95,0.00,,,0.47,Rainwise IP-100,2017-05-26 00:20:00,
2017-05-25 20:25:00,74.5,73.0,29.92,North,360,0.0,0.0,97,0.00,,,0.47,Rainwise IP-100,2017-05-26 00:25:00,
2017-05-25 20:30:00,74.3,73.0,29.92,North,360,0.0,0.0,97,0.00,,,0.47,Rainwise IP-100,2017-05-26 00:30:00,
2017-05-25 20:35:00,74.2,73.0,29.92,North,360,0.0,0.0,98,0.00,,,0.47,Rainwise IP-100,2017-05-26 00:35:00,
2017-05-25 20:40:00,74.0,73.0,29.92,North,360,0.0,0.0,98,0.00,,,0.47,Rainwise IP-100,2017-05-26 00:40:00,
2017-05-25 20:41:00,73.9,73.0,29.92,North,360,0.0,0.0,99,0.00,,,0.47,Rainwise IP-100,2017-05-26 00:41:00,
2017-05-25 20:46:00,73.9,73.0,29.92,North,360,0.0,0.0,99,0.00,,,0.47,Rainwise IP-100,2017-05-26 00:46:00,
2017-05-25 20:51:00,74.0,73.0,29.93,North,360,0.0,0.0,99,0.00,,,0.47,Rainwise IP-100,2017-05-26 00:51:00,
2017-05-25 20:56:00,74.1,73.0,29.93,North,360,0.0,0.0,99,0.00,,,0.47,Rainwise IP-100,2017-05-26 00:56:00,
2017-05-25 21:01:00,74.2,74.0,29.93,North,360,0.0,0.0,99,0.00,,,0.47,Rainwise IP-100,2017-05-26 01:01:00,
2017-05-25 21:06:00,74.0,73.0,29.93,North,360,0.0,0.0,99,0.00,,,0.47,Rainwise IP-100,2017-05-26 01:06:00,
2017-05-25 21:11:00,73.8,73.0,29.93,North,360,0.0,0.0,99,0.00,,,0.47,Rainwise IP-100,2017-05-26 01:11:00,
2017-05-25 21:16:00,73.7,73.0,29.93,North,360,0.0,0.0,99,0.00,,,0.47,Rainwise IP-100,2017-05-26 01:16:00,
2017-05-25 21:21:00,73.6,73.0,29.92,North,360,0.0,0.0,99,0.00,,,0.47,Rainwise IP-100,2017-05-26 01:21:00,
2017-05-25 21:26:00,73.6,73.0,29.92,North,360,0.0,0.0,99,0.00,,,0.47,Rainwise IP-100,2017-05-26 01:26:00,
2017-05-25 21:31:00,73.6,73.0,29.92,North,360,0.0,0.0,99,0.00,,,0.47,Rainwise IP-100,2017-05-26 01:31:00,
2017-05-25 21:36:00,73.7,73.0,29.93,North,360,0.0,0.0,99,0.00,,,0.47,Rainwise IP-100,2017-05-26 01:36:00,
2017-05-25 21:41:00,73.6,73.0,29.93,North,360,0.0,0.0,99,0.00,,,0.47,Rainwise IP-100,2017-05-26 01:41:00,
2017-05-25 21:46:00,73.4,73.0,29.93,North,360,0.0,0.0,99,0.00,,,0.47,Rainwise IP-100,2017-05-26 01:46:00,
2017-05-25 21:51:00,73.3,73.0,29.93,North,360,0.0,0.0,99,0.00,,,0.47,Rainwise IP-100,2017-05-26 01:51:00,
2017-05-25 21:56:00,73.2,73.0,29.93,North,360,0.0,0.0,99,0.00,,,0.47,Rainwise IP-100,2017-05-26 01:56:00,
2017-05-25 22:01:00,73.1,72.0,29.94,North,360,0.0,0.0,99,0.00,,,0.47,Rainwise IP-100,2017-05-26 02:01:00,
2017-05-25 22:06:00,72.9,72.0,29.94,North,360,0.0,0.0,99,0.00,,,0.47,Rainwise IP-100,2017-05-26 02:06:00,
2017-05-25 22:11:00,72.8,72.0,29.94,North,360,0.0,0.0,99,0.00,,,0.47,Rainwise IP-100,2017-05-26 02:11:00,